カタログに戻る

METEOR 2-13 DEB

運用中PO
NORAD 43151·DEBRIS·🇷🇺 Russia

打ち上げ Dec 26, 1985 から Plesetsk Cosmodrome

Loading…

次のパス (今後24時間)

TLE

経年Source: Space-Track

元期: Sep 9, 2026, 12:40 UTC

1 43151U 85119C   26252.52783260  .00000424  00000-0  30200-3 0  9996
2 43151  82.5385 172.6587 0024620 158.9038 201.3150 13.95215060459700

AllMySatでMETEOR 2-13 DEBをリアルタイム追跡

Download on the App Store